Regional Weather Roundup
Issued by NWS Pendleton, OR

Current Version | Previous Version | Text Only | Print | Product List | Glossary On
Versions: 1 2 3 4 5 6 7 8 9 10 11 12 13 14 15 16 17 18 19 20 21 22 23 24 25 26 27 28 29 30 31 32 33 34 35 36 37 38 39 40 41 42 43 44 45 46 47 48 49 50
748
ASUS46 KPDT 201610
RWRPDT
PENDLETON REGIONAL WEATHER ROUNDUP
NATIONAL WEATHER SERVICE PENDLETON OREGON
800 AM PST TUE FEB 20 2018

NOTE: FAIR INDICATES FEW OR NO CLOUDS BELOW 12,000 FEET WITH NO
SIGNIFICANT WEATHER AND/OR OBSTRUCTIONS TO VISIBILITY.

# INDICATES UNOFFICIAL STATION AND DATA

WAZ520-201710-
EAST SLOPES OF WASHINGTON CASCADES

CITY            SKY/WX      TMP DP  RH  WIND    PRES   REMARKS
#BULLFROG       N/A         14   9  80  CALM    N/A
#CLE ELUM HS    N/A         17  10  73  CALM    30.07R
#EASTON DOT     N/A         15  11  84  CALM    N/A
#ELK HTS DOT    N/A         14  13  96  SE1     N/A
#GLENWOOD       N/A         17  15  92  CALM    30.26R
#NELSON 3SW     N/A         11   9  91  CALM    30.47S
#NILE           N/A         12   9  87  CALM    29.44R
#TROUT LAKE 1NE N/A         15  13  92  CALM    30.26R
#TROUT LAKE 1E  N/A         13  11  91  CALM    30.15R
$$

WAZ521-201710-
SIMCOE HIGHLANDS

CITY            SKY/WX      TMP DP  RH  WIND    PRES   REMARKS
#BICKLETON HS   N/A         10   5  80  NW3     29.70S
#SATUS PASS DOT N/A          8   5  87  CALM    N/A
#CENTERVILLE 1SWN/A         20  15  81  CALM    30.22S
#GOLDENDALE 1NE N/A         18   0  44  N2      N/A
#GOLDENDALE 4W  N/A         19   5  54  NE2     30.18R
#GOODNOE HILLS  N/A         20  11  67  NE2     30.09S
#LYLE 6NE       N/A         20  17  88  CALM    30.26S
#PITT 4SE       N/A         18  15  88  CALM    30.29S
$$

WAZ026-201710-
KITTITAS VALLEY

CITY            SKY/WX      TMP DP  RH  WIND    PRES   REMARKS
ELLENSBURG AP   CLOUDY      21  12  68  E3      30.15R
#ELLENSBURG CWU N/A         20  13  74  NE1     30.19R
#ELLENSBURG 3NE N/A         18  13  80  CALM    28.22S
#ELLENSBURG 1E  N/A         17  12  80  CALM    30.31R
#KITTITAS 3S    N/A         17  13  84  CALM    30.25R
#MANASTASH RDG  N/A         15  15  100 CALM    N/A
#ROCKY CYN DOT  N/A         17  12  80  W2      N/A
#RYEGRASS DOT   N/A         15   7  70  CALM    N/A
$$

WAZ027-201710-
YAKIMA VALLEY

CITY            SKY/WX      TMP DP  RH  WIND    PRES   REMARKS
SUNNYSIDE AP    SUNNY       15  10  80  CALM    30.24S
YAKIMA AIRPORT  MOSUNNY     N/A N/A N/A W5      30.22S
YAKIMA-VAGABOND SUNNY       15  10  80  CALM    30.17R
#DONALD 2NE     N/A         25  -8  22  SW1     29.06R
#GRANDVIEW      N/A         16  11  80  CALM    30.31R
#MABTON         N/A         16  13  88  CALM    30.24S
#MOXEE 2E       N/A         35  N/A N/A E3      29.93S
#NACHES 2SW     N/A         18  12  77  CALM    30.14R
#PARKER DOT     N/A         17  12  80  CALM    30.22R
#TERRACE HTS    N/A         11   7  83  CALM    30.25R
#TOPPENISH      N/A         16  12  84  CALM    30.21R
#I82 S UMTANUM RN/A         17   7  64  NE6     N/A
#UNION GAP DOT  N/A         14  11  88  N1      30.26R
#W YAKIMA       N/A         17  10  73  CALM    30.29S
#WHITE SWAN 5E  N/A          8   5  87  CALM    30.31S
#WILEY CITY 3W  N/A         15   7  70  CALM    30.15R
#ZILLAH DOT     N/A         15  13  92  S1      N/A
$$

WAZ028-201710-
LOWER COLUMBIA BASIN...WASHINGTON

CITY            SKY/WX      TMP DP  RH  WIND    PRES   REMARKS
PASCO           MOCLDY      19  13  77  CALM    30.28R
PROSSER AWOS    N/A         18  16  92  CALM    30.28S
RICHLAND AWOS   SUNNY       17  14  88  W3      30.28R
#BENTON CITY    N/A         18  12  77  CALM    30.20R
#CONNELL 5N     N/A         16  12  84  NE1     30.29S
#CONNELL 5NW    N/A         16  -5  38  CALM    30.24S
#ELTOPIA 6NW    N/A         20  14  77  CALM    29.19S
#KAHLOTUS       N/A         13   9  84  S7      30.31R
#KENNEWICK 3S   N/A         17  10  73  CALM    30.29S
#PATERSON       N/A         19  11  70  CALM    30.28R
#PROSSER DOT    N/A         17  15  92  CALM    30.26R
#SAGEMOOR 2W    N/A         19  12  74  CALM    30.16R
#TOUCHET 2S     N/A         21  14  74  CALM    30.27S
#WEST PASCO     N/A         15  10  80  CALM    30.29R
$$

WAZ029-201710-
FOOTHILLS OF THE BLUES...WASHINGTON

CITY            SKY/WX      TMP DP  RH  WIND    PRES   REMARKS
WALLA WALLA AP  CLOUDY      25  11  55  E5      30.20S
#CLYDE 6NW      N/A         19  12  74  SE2     30.27S
#DELANEY DOT    N/A         12   8  84  CALM    30.26R
#LOWDEN 2SE     N/A         22  16  77  E1      30.22S
#PLEASANT VIEW 1N/A         15  10  80  CALM    30.34S
#PRESCOTT       N/A         23  16  74  CALM    30.28S
#WHITMAN COLLEGEN/A         24  12  60  CALM    30.34S
#WAITSBURG 5S   N/A         18  10  70  CALM    30.40S
#WAITSBURG 6SSE N/A         20   8  59  E2      30.12S
#WALLA WALLA 5E N/A         24  15  68  NE2     N/A
#WALLA WALLA U  N/A         22  15  74  CALM    30.29S
#WHITMAN MISSIONN/A         24  16  71  CALM    30.30S
$$

WAZ030-201710-
BLUE MOUNTAINS...WASHINGTON

CITY            SKY/WX      TMP DP  RH  WIND    PRES   REMARKS
#DIXIE 5SE      N/A         13   6  73  S3      29.99S
$$

ORZ009-041-WAZ024-201710-
COLUMBIA RIVER GORGE

CITY            SKY/WX      TMP DP  RH  WIND    PRES   REMARKS
HOOD RIVER AP   LGT SNOW    25  21  84  CALM    30.23R
THE DALLES AP   CLOUDY      24  18  77  SW3     30.26S
#ARLINGTON AIRPON/A         18  14  84  SE1     30.30R
#ARLINGTON HS   N/A         16  10  77  CALM    30.21S
#CELILO DOT     N/A         25  15  65  NE2     N/A
#LYLE           N/A         26  21  81  CALM    30.28S
#MARYHILL       N/A         21  16  81  N3      N/A
#MURDOCK        N/A         24  20  84  SE1     30.24S
#RUFUS DOT      N/A         21  N/A N/A S8      N/A
#SMITHVILLE     N/A         24  20  84  S1      30.22R

$$

ORZ510-201710-
NORTH CENTRAL OREGON

CITY            SKY/WX      TMP DP  RH  WIND    PRES   REMARKS
#ANTELOPE       N/A         15  11  84  CALM    30.17S
#CHENOWITH 1W   N/A         18  17  96  E5      N/A
#COW CYN RST AREN/A         17   9  70  E3      N/A
#DUFUR          N/A         13  10  87  CALM    30.24S
#DUFUR 9E       N/A         20  13  74  W1      30.31R
#GRASS VALLEY 1SN/A         17  13  84  S3      30.11R
#KENT DOT       N/A         14   5  67  SE8     N/A
#MAUPIN SCHOOL  N/A         20  14  77  CALM    30.25S
#SHANIKO 5WSW   N/A         16  N/A N/A SE12    N/A    WCI  3
#SHANIKO 4NW    N/A         15   9  77  S12     30.02F WCI  1
#TYGH VALLEY 2NEN/A         16  13  88  CALM    30.26S
#WAPANITIA AIRPON/A         15  12  88  CALM    30.29S
#WASCO DOT      N/A         13   9  84  SE2     N/A
#WASCO 5NE      N/A         16  12  84  CALM    30.29R
$$

ORZ511-201710-
CENTRAL OREGON

CITY            SKY/WX      TMP DP  RH  WIND    PRES   REMARKS
BEND AIRPORT    PTCLDY      12   7  80  CALM    30.09S
PRINEVILLE AP   PTCLDY      14  10  84  CALM    30.10S
REDMOND AIRPORT CLOUDY      16  11  80  CALM    30.10R
#ASHWOOD SCHOOL N/A          9   6  87  CALM    30.07F
#BEND 1SW       N/A         18  13  80  CALM    N/A
#BEND-AWBREY    N/A         18  13  80  S5      30.30R
#BEND-KIM LN    N/A         13  10  87  CALM    30.25S
#CULVER         N/A         16  10  77  CALM    30.11
#CULVER 8W      N/A         20   5  51  SW5     30.08S
#LAKE BILLY CHINN/A         20  N/A N/A S7      30.23F
#POWELL BUTTE   N/A         21   6  52  SW1     30.01S
#PRINEVILLE     N/A         13   9  84  CALM    30.40S
#PRINEVILLE 3N  N/A         15  11  84  E1      30.30S
#WARM SPRINGS   N/A         16  13  88  CALM    30.11R

$$


ORZ509-201710-
EAST SLOPES OF OREGON CASCADES

CITY            SKY/WX      TMP DP  RH  WIND    PRES   REMARKS
SISTERS AWOS    N/A          9   5  83  CALM    30.03S
#BLUE BOX PASS  N/A         15  N/A N/A E3      N/A
#CAMP SHERMAN   N/A         17  11  77  CALM    30.34R
#LA PINE DOT    N/A         12   7  80  W3      N/A
#LA PINE 4NW    N/A          9   5  83  CALM    30.38S
#LAVA BUTTE DOT N/A         15   8  73  CALM    N/A
#SISTERS ODOT   N/A         12   7  80  CALM    N/A
#SISTERS 3N     N/A         14   0  53  CALM    30.32S
#SUNRIVER       N/A         13  10  87  CALM    30.34R
#TUMALO 3W      N/A         15   9  77  NE1     30.16S
#WANOGA BUTTE D N/A         10  -1  60  NE3     N/A

$$

ORZ044-201710-
LOWER COLUMBIA BASIN...OREGON

CITY            SKY/WX      TMP DP  RH  WIND    PRES   REMARKS
HERMISTON       SUNNY       20  15  81  SW5     30.23S
#BOARDMAN SCHOOLN/A         14  11  88  CALM    30.27R
#BOARDMAN 8SW   N/A         16  13  88  N3      30.29R
#ECHO 8SW       N/A         19  13  77  CALM    30.24F
#I-84 EX 198 DOTN/A         21  14  74  NE3     N/A
#IONE SCHOOL    N/A         15   2  56  CALM    30.30F
#UMATILLA       N/A         21  13  71  CALM    30.22R
$$

ORZ507-201710-
NORTHERN FOOTHILLS OF THE BLUES

CITY            SKY/WX      TMP DP  RH  WIND    PRES   REMARKS
PENDLETON AIRPT CLOUDY      21  12  68  S5      30.17S
#ADAMS 3WNW     N/A         21  13  71  E1      30.30S
#ATHENA         N/A         20  10  64  S3      30.32F
#HELIX SCHOOL   N/A         22  15  74  N6      30.29S
#HELIX 3N       N/A         20  14  77  SE5     30.15S
#HOLDMAN 5SE    N/A         23  15  71  E2      30.17R
#M-F GROVE ELEM N/A         24   6  45  CALM    30.17S
#M-FREEWATER 5SEN/A         21   9  59  E12     30.18S WCI  9
#PENDLETON DNTN N/A         21   9  59  CALM    N/A
#PDT AQUATIC CTRN/A         20  10  64  CALM    30.18S
#PDT SUNRIDGE   N/A         18  14  84  CALM    30.22S
#PENDLETON 6SE  N/A         20  13  74  W3      30.26F
#PENDLETON 7NW  N/A         21  13  71  E7      N/A
#PILOT ROCK 1S  N/A         22   9  57  CALM    30.16F
#PILOT ROCK     N/A         23  14  68  CALM    30.17S
#TUTUILLA       N/A         15  10  80  CALM    30.24F
#UMAPINE 2E     N/A         26  13  57  CALM    30.21S

$$

ORZ508-201710-
SOUTHERN FOOTHILLS OF THE BLUES

CITY            SKY/WX      TMP DP  RH  WIND    PRES   REMARKS
#AJAX           N/A         19   3  49  CALM    30.26S
#CONDON 5W      N/A         14   8  76  CALM    30.01F
#FOSSIL SCHOOL  N/A         19  11  70  N2      30.03F
#HEPPNER EOC    N/A         21  10  62  SW7     30.22S
#HEPPNER 4NE    N/A         16   9  73  CALM    30.29S
#LEXINGTON 2SE  N/A         22  11  62  S2      30.12F
#MIKKALO        N/A         22  11  62  S5      30.25F
#OLEX 4N        N/A         21  15  77  CALM    30.17S
#RUGGS 5NE      N/A         19   7  59  S2      30.23S
#RUGGS 2SW      N/A         18  10  70  SW10    30.33F

$$

ORZ502-503-201710-
BLUE MOUNTAINS

CITY            SKY/WX      TMP DP  RH  WIND    PRES   REMARKS
MEACHAM         CLOUDY       6   2  83  CALM    30.04S
#BATTLE MTN DOT N/A          4   0  83  S3      N/A
#GRANITE        N/A          4  N/A N/A CALM    29.62S
#HARDMAN 10S    N/A          6   2  83  CALM    30.50S
#LADD CYN SMT   N/A          8   2  76  SE6     N/A
#LADD CREEK ODOTN/A         10   4  76  CALM    N/A
#N POWDER DOT   N/A         12   5  73  S6      N/A
#PIKES PEAK     N/A         15   0  51  S8      27.99S
#SUMMERVILLE 5NWN/A          8   5  87  CALM    28.06R
#TOLLGATE       N/A          4   1  87  CALM    29.98S
#TROY SCHOOL    N/A         11   4  73  SE2     30.24R
#UKIAH          N/A          4   0  83  CALM    30.35R
#WESTON 4E      N/A         13   7  76  SE7     30.30F
$$

ORZ505-201710-
JOHN DAY BASIN

CITY            SKY/WX      TMP DP  RH  WIND    PRES   REMARKS
JOHN DAY        MOCLDY      13   5  70  E6      30.08S
#ANTELOPE 9ESE  N/A         18  11  74  CALM    N/A
#DAYVILLE SCHOOLN/A         15   1  53  E1      30.13R
#MITCHELL 8NW   N/A         17  10  73  CALM    30.36F
#MONUMENT HS    N/A         11   3  69  CALM    30.16R
#MT. VERNON 5SE N/A         12   5  73  NE1     30.00S
#SPRAY SCHOOL   N/A         15  N/A N/A CALM    N/A
$$

ORZ506-201710-
OCHOCO AND JOHN DAY HIGHLANDS

CITY            SKY/WX      TMP DP  RH  WIND    PRES   REMARKS
#HORSE RIDGE DO N/A         -1  -7  75  SE1     N/A
#IZEE 6NW       N/A         10   5  80  N1      N/A
#KEYES SMT DOT  N/A          9   4  80  SE3     N/A
#PAULINA ODOT   N/A          9   4  80  CALM    N/A
#PINE MTN OBS   N/A          9   6  87  CALM    N/A
#PRAIRIE CITY   N/A         11  -2  55  CALM    30.24S
#SENECA         N/A          7  N/A N/A CALM    N/A
#SENECA 9NW     N/A          2  -2  83  CALM    30.40R
$$

ORZ049-201710-
GRANDE RONDE VALLEY

CITY            SKY/WX      TMP DP  RH  WIND    PRES   REMARKS
LA GRANDE       LGT SNOW    10   4  76  CALM    30.18R
#COVE SCHOOL    N/A          9   4  80  CALM    30.15R
#COVE 6NW       N/A          9   4  80  CALM    30.40R
#ELGIN 3N       N/A          5  -6  59  CALM    30.12S
#ELGIN 1E       N/A          8   1  72  CALM    N/A
#IMBLER SCHOOL  N/A          8   3  79  CALM    30.12R
#ISLAND CITY 4N N/A         30  29  96  CALM    30.21F
#LADD CYN DOT   N/A         10   6  83  CALM    N/A
#UNION 1S       N/A          9   4  80  CALM    30.41R
$$

ORZ050-201710-
WALLOWA COUNTY

CITY            SKY/WX      TMP DP  RH  WIND    PRES   REMARKS
JOSEPH AIRPORT  CLOUDY       0  -6  75  CALM    30.05R
#IMNAHA SCHOOL  N/A          9   1  69  SE2     30.26R
#JOSEPH 3N      N/A         -3  -13 61  E2      30.08S
#LOSTINE        N/A          1  -4  79  CALM    30.20R
#LOSTINE 3SE    N/A          0  -6  75  W3      30.10R
#MT HOWARD 8000 N/A         -6  -10 82  CALM    29.57S
#WALLOWA LAKE   N/A          3  -4  72  SE2     30.03R
#WALLOWA SCHOOL N/A          2  -2  83  CALM    30.13R



$$



USA.gov is the U.S. government's official web portal to all federal, state and local government web resources and services.